period_start,C,m1,H,J0,J1,J2,J3,J4,J5,JA,JB,JC,JD,JJ,JK,JN,#
2014-10-30 00:04:08,0.23,2.61,0.00,23.21,27.70,30.67,4.78,27.93,1011.73,2030.00,2462.02,2639.87,2823.63,349.98,345.62,16.46,0000 0000 0000 0000 000000
2014-10-30 00:09:10,0.22,2.62,0.00,23.22,27.70,30.66,4.74,27.86,1011.73,2030.01,2460.08,2638.50,2821.97,349.81,345.59,16.49,0000 0000 0000 0000 000000
2014-10-30 00:14:11,0.21,2.63,0.00,23.22,27.70,30.67,4.78,27.98,1011.71,2030.01,2458.13,2637.09,2820.55,350.07,345.57,16.52,0000 0000 0000 0000 000000
2014-10-30 00:19:12,0.22,2.63,0.00,23.24,27.70,30.66,4.78,27.87,1011.68,2030.00,2456.24,2635.67,2818.98,349.95,345.46,16.55,0000 0000 0000 0000 000000
2014-10-30 00:24:14,0.20,2.64,0.00,23.23,27.70,30.66,4.84,28.03,1011.72,2030.00,2454.28,2634.31,2817.46,349.55,345.32,16.58,0000 0000 0000 0000 000000
2014-10-30 00:29:15,0.22,2.64,0.00,23.22,27.70,30.63,4.82,27.92,1011.67,2030.00,2452.43,2632.89,2815.95,350.49,346.12,16.61,0000 0000 0000 0000 000000
2014-10-30 00:34:17,0.21,2.65,0.00,23.21,27.70,30.64,4.69,27.88,1011.62,2030.00,2450.57,2631.59,2814.54,349.48,344.97,16.64,0000 0000 0000 0000 000000
2014-10-30 00:39:18,0.23,2.66,0.00,23.18,27.70,30.63,4.77,28.06,1011.62,2030.00,2448.57,2630.10,2812.91,349.92,345.32,16.67,0000 0000 0000 0000 000000
2014-10-30 00:44:19,0.22,2.66,0.00,23.19,27.70,30.64,4.75,27.89,1011.66,2030.00,2446.70,2628.70,2811.46,350.19,345.95,16.69,0000 0000 0000 0000 000000
2014-10-30 00:49:21,0.21,2.67,0.00,23.19,27.70,30.63,4.73,27.85,1011.65,2030.00,2444.82,2627.43,2809.88,349.85,345.55,16.72,0000 0000 0000 0000 000000
2014-10-30 00:54:22,0.21,2.68,0.00,23.18,27.70,30.65,4.75,27.91,1011.59,2030.00,2442.95,2626.00,2808.45,349.75,345.42,16.75,0000 0000 0000 0000 000000
2014-10-30 00:59:23,0.22,2.68,0.00,23.17,27.70,30.64,4.82,27.91,1011.70,2030.00,2441.11,2624.68,2806.94,350.07,346.00,16.78,0000 0000 0000 0000 000000
2014-10-30 01:04:24,0.20,2.69,0.00,23.17,27.70,30.63,4.78,28.04,1011.73,2030.00,2439.29,2623.37,2805.49,350.40,346.22,16.81,0000 0000 0000 0000 000000
2014-10-30 01:09:26,0.20,2.70,0.00,23.15,27.70,30.63,4.77,27.86,1011.73,2030.00,2437.40,2622.16,2803.93,350.11,346.02,16.84,0000 0000 0000 0000 000000
2014-10-30 01:14:27,0.23,2.70,0.00,23.14,27.69,30.63,4.77,27.85,1011.73,2030.00,2435.52,2620.72,2802.44,350.17,346.17,16.87,0000 0000 0000 0000 000000
2014-10-30 01:19:28,0.21,2.71,0.00,23.14,27.68,30.62,4.80,27.80,1011.73,2030.00,2433.62,2619.42,2800.85,350.02,345.67,16.90,0000 0000 0000 0000 000000
2014-10-30 01:24:29,0.21,2.71,0.00,23.17,27.67,30.62,4.72,27.77,1011.73,2030.00,2431.73,2618.03,2799.45,350.02,345.84,16.93,0000 0000 0000 0000 000000
2014-10-30 01:29:30,0.22,2.72,0.00,23.15,27.67,30.60,4.75,27.77,1011.73,2030.00,2430.00,2616.71,2797.90,350.39,346.16,16.96,0000 0000 0000 0000 000000
2014-10-30 01:34:32,0.20,2.73,0.00,23.15,27.67,30.61,4.74,27.82,1011.73,2030.00,2428.14,2615.38,2796.41,349.58,345.40,16.99,0000 0000 0000 0000 000000
2014-10-30 01:39:33,0.23,2.73,0.00,23.16,27.67,30.61,4.79,27.93,1011.73,2030.00,2426.20,2613.96,2794.86,350.11,345.93,17.02,0000 0000 0000 0000 000000
2014-10-30 01:44:34,0.19,2.74,0.00,23.20,27.67,30.59,4.72,27.65,1011.73,2030.00,2424.52,2612.67,2793.50,349.89,345.61,17.05,0000 0000 0000 0000 000000
2014-10-30 01:49:35,0.20,2.75,0.00,23.17,27.67,30.61,4.79,27.70,1011.73,2030.00,2422.66,2611.39,2791.98,350.10,345.95,17.08,0000 0000 0000 0000 000000
2014-10-30 01:54:36,0.20,2.75,0.00,23.18,27.67,30.62,4.79,27.77,1011.73,2030.00,2420.85,2610.05,2790.56,350.02,345.93,17.10,0000 0000 0000 0000 000000
2014-10-30 01:59:37,0.23,2.76,0.00,23.20,27.67,30.62,4.75,27.73,1011.73,2030.01,2419.00,2608.71,2789.03,349.82,345.57,17.13,0000 0000 0000 0000 000000
2014-10-30 02:04:39,0.20,2.76,0.00,23.22,27.67,30.59,4.76,27.72,1011.73,2030.00,2417.16,2607.37,2787.51,349.65,345.37,17.16,0000 0000 0000 0000 000000
2014-10-30 02:09:40,0.19,2.77,0.00,23.23,27.67,30.59,4.82,27.66,1011.73,2030.01,2415.33,2605.98,2786.13,350.60,346.42,17.19,0000 0000 0000 0000 000000
2014-10-30 02:14:42,0.24,2.78,0.00,23.24,27.67,30.58,4.78,27.68,1011.73,2030.01,2413.48,2604.66,2784.58,349.67,345.49,17.22,0000 0000 0000 0000 000000
2014-10-30 02:19:43,0.20,2.78,0.00,23.28,27.67,30.54,4.75,27.83,1011.73,2030.02,2411.64,2603.34,2783.09,349.70,345.44,17.25,0000 0000 0000 0000 000000
2014-10-30 02:24:44,0.23,2.79,0.00,23.30,27.67,30.54,4.76,27.62,1011.73,2030.01,2409.74,2601.89,2781.52,349.97,345.64,17.28,0000 0000 0000 0000 000000
2014-10-30 02:29:46,0.22,2.80,0.00,23.29,27.67,30.54,4.73,27.78,1011.73,2030.01,2407.89,2600.56,2780.00,349.86,345.63,17.31,0000 0000 0000 0000 000000
2014-10-30 02:34:47,0.21,2.80,0.00,23.28,27.67,30.56,4.79,27.91,1011.73,2030.00,2406.08,2599.23,2778.49,349.84,345.68,17.34,0000 0000 0000 0000 000000
2014-10-30 02:39:48,0.25,2.81,0.00,23.29,27.67,30.53,4.79,28.14,1011.73,2030.00,2404.06,2597.70,2776.82,350.05,345.63,17.37,0000 0000 0000 0000 000000
2014-10-30 02:44:49,0.18,2.82,0.00,23.30,27.67,30.55,4.79,27.82,1011.73,2030.00,2402.31,2596.43,2775.48,349.84,345.51,17.40,0000 0000 0000 0000 000000
2014-10-30 02:49:50,0.20,2.82,0.00,23.29,27.69,30.54,4.77,27.81,1011.70,2030.00,2400.54,2595.07,2773.90,350.14,345.68,17.43,0000 0000 0000 0000 000000
2014-10-30 02:54:51,0.24,2.83,0.00,23.33,27.70,30.54,4.71,27.88,1011.73,2030.00,2398.65,2593.67,2772.42,349.60,345.29,17.46,0000 0000 0000 0000 000000
2014-10-30 02:59:52,0.22,2.84,0.00,23.35,27.70,30.55,4.70,27.82,1011.73,2030.00,2396.71,2592.35,2770.84,349.30,345.24,17.48,0000 0000 0000 0000 000000
2014-10-30 03:04:54,0.21,2.84,0.00,23.34,27.70,30.49,4.76,27.97,1011.73,2030.00,2394.88,2590.96,2769.43,349.56,345.18,17.51,0000 0000 0000 0000 000000
2014-10-30 03:09:55,0.24,2.85,0.00,23.33,27.70,30.52,4.77,27.83,1011.73,2030.00,2392.96,2589.57,2767.81,350.20,345.83,17.54,0000 0000 0000 0000 000000
2014-10-30 03:14:57,0.22,2.86,0.00,23.36,27.70,30.50,4.78,27.87,1011.73,2030.00,2391.04,2588.17,2766.22,349.77,345.31,17.57,0000 0000 0000 0000 000000
2014-10-30 03:19:58,0.24,2.86,0.00,23.33,27.72,30.54,4.77,27.86,1011.73,2030.00,2389.10,2586.70,2764.63,350.14,345.72,17.60,0000 0000 0000 0000 000000
2014-10-30 03:24:59,0.21,2.87,0.00,23.33,27.72,30.54,4.79,27.76,1011.73,2030.00,2387.20,2585.29,2763.04,350.46,346.08,17.63,0000 0000 0000 0000 000000
2014-10-30 03:30:00,0.24,2.88,0.00,23.34,27.72,30.56,4.79,27.89,1011.72,2030.00,2385.27,2583.82,2761.42,350.13,345.66,17.66,0000 0000 0000 0000 000000
2014-10-30 03:35:01,0.23,2.88,0.00,23.34,27.72,30.58,4.77,27.85,1011.59,2030.00,2383.30,2582.42,2759.80,350.62,346.13,17.69,0000 0000 0000 0000 000000
2014-10-30 03:40:03,0.24,2.89,0.00,23.34,27.72,30.59,4.78,28.09,1011.63,2030.00,2381.28,2580.94,2758.17,350.38,346.04,17.72,0000 0000 0000 0000 000000
2014-10-30 03:45:04,0.23,2.90,0.00,23.30,27.73,30.62,4.75,27.78,1011.62,2029.99,2379.42,2579.53,2756.62,349.77,345.39,17.75,0000 0000 0000 0000 000000
2014-10-30 03:50:05,0.22,2.90,0.00,23.30,27.75,30.65,4.74,27.82,1011.48,2029.99,2377.50,2578.12,2754.99,349.69,345.31,17.78,0000 0000 0000 0000 000000
2014-10-30 03:55:07,0.24,2.91,0.00,23.29,27.75,30.66,4.77,27.77,1011.27,2029.99,2375.55,2576.65,2753.42,350.15,345.53,17.81,0000 0000 0000 0000 000000
2014-10-30 04:00:08,0.23,2.92,0.00,23.28,27.75,30.69,4.75,27.89,1011.26,2029.99,2373.54,2575.23,2751.83,349.82,345.38,17.84,0000 0000 0000 0000 000000
2014-10-30 04:05:09,0.24,2.93,0.00,23.30,27.75,30.66,4.75,27.89,1011.24,2029.98,2371.51,2573.73,2750.39,350.21,345.74,17.87,0000 0000 0000 0000 000000
2014-10-30 04:10:11,0.23,2.93,0.00,23.30,27.75,30.66,4.74,27.90,1011.24,2029.96,2369.54,2572.33,2748.73,349.42,344.98,17.89,0000 0000 0000 0000 000000
2014-10-30 04:15:12,0.23,2.94,0.00,23.30,27.75,30.65,4.80,27.88,1011.25,2029.97,2367.71,2570.88,2747.22,349.81,345.45,17.92,0000 0000 0000 0000 000000
2014-10-30 04:20:13,0.22,2.95,0.00,23.26,27.75,30.64,4.79,27.97,1011.29,2029.95,2365.89,2569.49,2745.60,350.27,345.77,17.95,0000 0000 0000 0000 000000
2014-10-30 04:25:15,0.22,2.95,0.00,23.30,27.75,30.64,4.77,27.93,1011.43,2029.96,2364.03,2568.12,2743.99,349.87,345.35,17.98,0000 0000 0000 0000 000000
2014-10-30 04:30:16,0.23,2.96,0.00,23.31,27.75,30.64,4.82,27.85,1011.63,2029.95,2362.18,2566.70,2742.47,350.38,345.79,18.01,0000 0000 0000 0000 000000
2014-10-30 04:35:17,0.22,2.97,0.00,23.29,27.75,30.64,4.74,27.96,1011.72,2029.93,2360.29,2565.36,2740.85,349.37,344.96,18.04,0000 0000 0000 0000 000000
2014-10-30 04:40:18,0.21,2.97,0.00,23.28,27.75,30.64,4.73,27.97,1011.73,2029.84,2358.29,2563.81,2739.32,349.86,345.45,18.07,0000 0000 0000 0000 000000
2014-10-30 04:45:19,0.23,2.98,0.00,23.32,27.75,30.65,4.78,27.82,1011.73,2029.97,2356.61,2562.65,2737.87,350.07,345.71,18.10,0000 0000 0000 0000 000000
2014-10-30 04:50:21,0.21,2.99,0.00,23.32,27.75,30.66,4.83,27.82,1011.74,2029.95,2354.74,2561.33,2736.42,350.02,345.75,18.13,0000 0000 0000 0000 000000
2014-10-30 04:55:22,0.23,2.99,0.00,23.31,27.75,30.65,4.80,27.88,1011.75,2029.93,2352.88,2559.91,2734.83,350.44,346.19,18.16,0000 0000 0000 0000 000000
2014-10-30 05:00:23,0.20,3.00,0.00,23.30,27.75,30.67,4.79,27.82,1011.75,2029.86,2351.04,2558.74,2733.27,349.99,345.75,18.19,0000 0000 0000 0000 000000
2014-10-30 05:05:24,0.21,3.00,0.00,23.32,27.75,30.67,4.76,27.91,1011.73,2029.87,2349.26,2557.48,2731.78,349.60,345.25,18.22,0000 0000 0000 0000 000000
2014-10-30 05:10:25,0.21,3.01,0.00,23.34,27.76,30.67,4.78,27.99,1011.74,2029.88,2347.42,2556.10,2730.27,349.92,345.79,18.25,0000 0000 0000 0000 000000
2014-10-30 05:15:26,0.23,3.02,0.00,23.33,27.77,30.66,4.72,27.91,1011.73,2029.80,2345.54,2554.71,2728.68,349.45,345.07,18.28,0000 0000 0000 0000 000000
2014-10-30 05:20:28,0.23,3.02,0.00,23.33,27.77,30.64,4.79,27.89,1011.73,2029.85,2343.66,2553.37,2727.22,350.43,346.08,18.30,0000 0000 0000 0000 000000
2014-10-30 05:25:29,0.19,3.03,0.00,23.35,27.77,30.64,4.70,27.80,1011.73,2029.77,2341.73,2551.98,2725.64,349.46,345.08,18.33,0000 0000 0000 0000 000000
2014-10-30 05:30:30,0.28,3.04,0.00,23.35,27.77,30.65,4.76,27.80,1011.73,2029.78,2339.75,2550.57,2724.04,350.23,345.84,18.36,0000 0000 0000 0000 000000
2014-10-30 05:35:31,0.23,3.05,0.00,23.33,27.77,30.64,4.78,28.03,1011.66,2029.83,2337.78,2549.12,2722.46,350.00,345.65,18.39,0000 0000 0000 0000 000000
2014-10-30 05:40:32,0.20,3.05,0.00,23.31,27.77,30.67,4.77,28.07,1011.53,2029.55,2335.69,2547.56,2720.72,350.11,345.75,18.42,0000 0000 0000 0000 000000
2014-10-30 05:45:33,0.27,3.06,0.00,23.32,27.77,30.67,4.72,28.00,1011.30,2029.80,2333.88,2546.28,2719.24,350.30,345.62,18.45,0000 0000 0000 0000 000000
2014-10-30 05:50:35,0.25,3.07,0.00,23.32,27.77,30.66,4.83,28.10,1011.26,2029.71,2331.84,2544.80,2717.59,350.31,345.79,18.48,0000 0000 0000 0000 000000
2014-10-30 05:55:36,0.23,3.07,0.00,23.28,27.77,30.67,4.73,28.14,1011.25,2029.70,2329.86,2543.44,2715.93,349.83,345.22,18.51,0000 0000 0000 0000 000000
2014-10-30 06:00:37,0.19,3.08,0.00,23.24,27.77,30.72,4.77,28.08,1011.34,2029.66,2327.93,2541.94,2714.36,349.99,346.06,18.54,0000 0000 0000 0000 000000
2014-10-30 06:05:38,0.30,3.09,0.00,23.24,27.77,30.74,4.79,28.02,1011.54,2029.76,2326.02,2540.61,2712.79,349.94,345.67,18.57,0000 0000 0000 0000 000000
2014-10-30 06:10:39,0.16,3.09,0.00,23.25,27.77,30.74,4.86,28.16,1011.70,2029.68,2324.18,2539.17,2711.22,350.66,346.22,18.60,0000 0000 0000 0000 000000
2014-10-30 06:15:41,0.26,3.10,0.00,23.23,27.77,30.75,4.78,28.02,1011.73,2029.50,2322.19,2537.69,2709.58,350.16,346.05,18.63,0000 0000 0000 0000 000000
2014-10-30 06:20:42,0.20,3.11,0.00,23.21,27.77,30.73,4.83,27.98,1011.73,2029.46,2320.27,2536.29,2707.99,350.21,345.98,18.66,0000 0000 0000 0000 000000
2014-10-30 06:25:43,0.27,3.11,0.00,23.20,27.77,30.74,4.80,28.02,1011.74,2029.46,2318.33,2534.82,2706.42,350.25,346.14,18.69,0000 0000 0000 0000 000000
2014-10-30 06:30:44,0.22,3.12,0.00,23.23,27.77,30.71,4.81,28.13,1011.74,2029.41,2316.38,2533.46,2704.81,350.06,345.75,18.71,0000 0000 0000 0000 000000
2014-10-30 06:35:45,0.21,3.13,0.00,23.22,27.76,30.72,4.76,28.05,1011.73,2029.36,2314.40,2531.99,2703.22,350.02,345.66,18.74,0000 0000 0000 0000 000000
2014-10-30 06:40:46,0.26,3.13,0.00,23.21,27.75,30.70,4.77,28.03,1011.73,2029.22,2312.30,2530.51,2701.58,349.96,345.66,18.77,0000 0000 0000 0000 000000
2014-10-30 06:45:48,0.20,3.14,0.00,23.21,27.75,30.70,4.77,27.98,1011.73,2029.28,2310.40,2529.11,2699.95,350.38,346.03,18.80,0000 0000 0000 0000 000000
2014-10-30 06:50:49,0.29,3.15,0.00,23.22,27.75,30.70,4.75,28.06,1011.73,2029.38,2308.46,2527.69,2698.43,349.43,345.19,18.83,0000 0000 0000 0000 000000
2014-10-30 06:55:51,0.28,3.16,0.00,23.20,27.75,30.69,4.78,28.20,1011.73,2029.56,2306.44,2526.24,2696.80,350.10,345.94,18.86,0000 0000 0000 0000 000000
2014-10-30 07:00:52,0.27,3.17,0.00,23.19,27.75,30.69,4.76,28.13,1011.72,2029.67,2304.50,2524.78,2695.23,349.88,345.63,18.89,0000 0000 0000 0000 000000
2014-10-30 07:05:53,0.23,3.17,0.00,23.18,27.75,30.69,4.73,27.97,1011.70,2029.69,2302.67,2523.40,2693.63,349.76,345.55,18.92,0000 0000 0000 0000 000000
2014-10-30 07:10:55,0.24,3.18,0.00,23.19,27.74,30.67,4.76,28.07,1011.72,2029.75,2300.76,2521.98,2692.08,349.73,345.49,18.95,0000 0000 0000 0000 000000
2014-10-30 07:15:56,0.26,3.19,0.00,23.20,27.73,30.68,4.72,28.02,1011.72,2029.86,2298.92,2520.60,2690.54,349.67,345.36,18.98,0000 0000 0000 0000 000000
2014-10-30 07:20:57,0.22,3.19,0.00,23.17,27.72,30.66,4.81,28.04,1011.73,2029.80,2296.94,2519.23,2688.94,350.06,345.66,19.01,0000 0000 0000 0000 000000
2014-10-30 07:25:59,0.24,3.20,0.00,23.16,27.72,30.69,4.78,27.90,1011.73,2029.91,2295.13,2517.86,2687.55,350.15,345.97,19.04,0000 0000 0000 0000 000000
2014-10-30 07:31:00,0.23,3.21,0.00,23.17,27.72,30.71,4.76,28.09,1011.73,2029.86,2293.20,2516.47,2686.00,350.19,346.01,19.07,0000 0000 0000 0000 000000
2014-10-30 07:36:01,0.24,3.22,0.00,23.19,27.72,30.68,4.78,28.00,1011.72,2029.92,2291.25,2515.08,2684.47,350.12,345.91,19.10,0000 0000 0000 0000 000000
2014-10-30 07:41:03,0.25,3.22,0.00,23.19,27.72,30.67,4.70,28.12,1011.72,2029.90,2289.21,2513.60,2682.89,350.32,346.28,19.12,0000 0000 0000 0000 000000
2014-10-30 07:46:04,0.24,3.23,0.00,23.21,27.72,30.67,4.79,27.91,1011.72,2029.98,2287.28,2512.33,2681.37,350.45,346.20,19.15,0000 0000 0000 0000 000000
2014-10-30 07:51:05,0.27,3.24,0.00,23.20,27.72,30.67,4.83,27.91,1011.60,2029.97,2285.22,2510.80,2679.68,350.67,346.43,19.18,0000 0000 0000 0000 000000
2014-10-30 07:56:06,0.22,3.25,0.00,23.19,27.71,30.65,4.78,28.22,1011.32,2029.97,2283.34,2509.52,2678.15,349.86,345.77,19.21,0000 0000 0000 0000 000000
2014-10-30 08:01:08,0.23,3.25,0.00,23.19,27.71,30.65,4.78,28.15,1011.37,2029.95,2281.39,2508.06,2676.52,349.94,345.58,19.24,0000 0000 0000 0000 000000
2014-10-30 08:06:09,0.24,3.26,0.00,23.18,27.70,30.67,4.76,28.09,1011.45,2029.96,2279.54,2506.71,2674.99,350.16,345.87,19.27,0000 0000 0000 0000 000000
2014-10-30 08:11:10,0.23,3.27,0.00,23.16,27.70,30.65,4.80,28.02,1011.65,2029.95,2277.65,2505.38,2673.46,350.57,346.36,19.30,0000 0000 0000 0000 000000
2014-10-30 08:16:12,0.22,3.27,0.00,23.15,27.70,30.68,4.78,28.06,1011.73,2029.97,2275.89,2504.03,2672.01,350.22,346.06,19.33,0000 0000 0000 0000 000000
2014-10-30 08:21:13,0.24,3.28,0.00,23.16,27.70,30.64,4.80,28.08,1011.74,2029.96,2274.11,2502.64,2670.49,349.53,345.38,19.36,0000 0000 0000 0000 000000
2014-10-30 08:26:15,0.22,3.29,0.00,23.15,27.70,30.66,4.85,28.03,1011.75,2029.94,2272.27,2501.35,2668.89,350.48,346.33,19.39,0000 0000 0000 0000 000000
2014-10-30 08:31:16,0.22,3.29,0.00,23.12,27.70,30.65,4.75,28.00,1011.83,2029.89,2270.44,2499.96,2667.47,349.58,345.43,19.42,0000 0000 0000 0000 000000
2014-10-30 08:36:17,0.23,3.30,0.00,23.14,27.70,30.66,4.80,27.99,1011.93,2029.87,2268.60,2498.67,2666.02,349.95,345.70,19.45,0000 0000 0000 0000 000000
2014-10-30 08:41:18,0.23,3.31,0.00,23.16,27.70,30.64,4.79,27.97,1011.78,2029.88,2266.84,2497.42,2664.59,349.79,345.65,19.48,0000 0000 0000 0000 000000
2014-10-30 08:46:19,0.19,3.31,0.00,23.15,27.69,30.63,4.78,28.00,1011.84,2029.96,2265.22,2496.28,2663.34,349.85,345.73,19.50,0000 0000 0000 0000 000000
2014-10-30 08:51:20,0.21,3.32,0.00,23.15,27.68,30.65,4.81,28.07,1011.96,2029.96,2263.47,2495.13,2661.87,350.35,346.39,19.53,0000 0000 0000 0000 000000
2014-10-30 08:56:21,0.23,3.33,0.00,23.16,27.68,30.63,4.77,28.08,1012.00,2029.97,2261.68,2493.89,2660.51,350.05,345.89,19.56,0000 0000 0000 0000 000000
2014-10-30 09:01:23,0.21,3.33,0.00,23.16,27.67,30.64,4.79,28.13,1011.88,2029.96,2259.98,2492.69,2659.09,349.94,345.79,19.59,0000 0000 0000 0000 000000
2014-10-30 09:06:24,0.22,3.34,0.00,23.16,27.67,30.62,4.72,28.15,1011.76,2029.97,2258.30,2491.50,2657.69,349.54,345.36,19.62,0000 0000 0000 0000 000000
2014-10-30 09:11:25,0.20,3.35,0.00,23.15,27.67,30.63,4.77,28.13,1011.73,2029.98,2256.59,2490.27,2656.41,350.29,346.07,19.65,0000 0000 0000 0000 000000
2014-10-30 09:16:26,0.23,3.35,0.00,23.16,27.67,30.64,4.81,28.21,1011.69,2029.99,2254.79,2488.94,2654.91,350.05,345.97,19.68,0000 0000 0000 0000 000000
2014-10-30 09:21:28,0.22,3.36,0.00,23.15,27.67,30.61,4.72,28.22,1011.45,2029.98,2253.08,2487.76,2653.57,349.63,345.38,19.71,0000 0000 0000 0000 000000
2014-10-30 09:26:30,0.22,3.37,0.00,23.12,27.67,30.60,4.81,28.16,1011.36,2029.99,2251.37,2486.50,2652.09,350.99,346.73,19.74,0000 0000 0000 0000 000000
2014-10-30 09:31:31,0.22,3.37,0.00,23.10,27.67,30.61,4.86,28.28,1011.45,2029.99,2249.66,2485.27,2650.73,350.18,345.80,19.77,0000 0000 0000 0000 000000
2014-10-30 09:36:32,0.20,3.38,0.00,23.10,27.67,30.62,4.75,28.23,1011.43,2029.98,2248.05,2484.04,2649.44,349.93,345.73,19.80,0000 0000 0000 0000 000000
2014-10-30 09:41:33,0.21,3.39,0.00,23.09,27.65,30.62,4.79,28.38,1011.57,2029.99,2246.22,2482.83,2647.98,349.97,345.65,19.83,0000 0000 0000 0000 000000
2014-10-30 09:46:34,0.25,3.39,0.00,23.06,27.65,30.65,4.78,28.16,1011.50,2029.99,2244.62,2481.57,2646.60,349.77,345.56,19.86,0000 0000 0000 0000 000000
2014-10-30 09:51:36,0.20,3.40,0.00,23.04,27.65,30.63,4.81,28.33,1011.45,2029.99,2242.85,2480.41,2645.33,350.09,345.93,19.89,0000 0000 0000 0000 000000
2014-10-30 09:56:37,0.19,3.40,0.00,23.02,27.65,30.63,4.84,28.48,1011.52,2029.99,2241.28,2479.22,2643.93,350.54,346.45,19.92,0000 0000 0000 0000 000000
2014-10-30 10:01:38,0.24,3.41,0.00,23.00,27.65,30.63,4.78,28.30,1011.48,2029.99,2239.59,2477.92,2642.53,349.77,345.56,19.94,0000 0000 0000 0000 000000
2014-10-30 10:06:39,0.21,3.42,0.00,23.00,27.64,30.64,4.80,28.31,1011.40,2029.99,2237.98,2476.70,2641.15,350.94,346.65,19.97,0000 0000 0000 0000 000000
2014-10-30 10:11:41,0.22,3.42,0.00,22.99,27.62,30.62,4.78,28.41,1011.57,2029.99,2236.24,2475.50,2639.75,349.50,345.37,20.00,0000 0000 0000 0000 000000
2014-10-30 10:16:42,0.21,3.43,0.00,22.96,27.62,30.64,4.80,28.09,1011.70,2029.99,2234.58,2474.28,2638.39,350.33,346.29,20.03,0000 0000 0000 0000 000000
2014-10-30 10:21:44,0.20,3.44,0.00,22.93,27.62,30.63,4.75,28.27,1011.73,2029.99,2232.93,2473.00,2636.94,349.75,345.87,20.06,0000 0000 0000 0000 000000
2014-10-30 10:26:45,0.20,3.44,0.00,22.94,27.60,30.61,4.79,28.02,1011.74,2029.99,2231.39,2471.92,2635.69,350.33,346.41,20.09,0000 0000 0000 0000 000000
2014-10-30 10:31:46,0.21,3.45,0.00,22.94,27.60,30.61,4.81,27.98,1011.75,2029.99,2229.87,2470.81,2634.48,349.90,346.04,20.12,0000 0000 0000 0000 000000
2014-10-30 10:36:48,0.21,3.45,0.00,22.93,27.59,30.61,4.82,28.06,1011.86,2029.99,2228.12,2469.66,2633.09,350.07,346.17,20.15,0000 0000 0000 0000 000000
2014-10-30 10:41:49,0.21,3.46,0.00,22.93,27.57,30.58,4.77,28.13,1012.05,2029.99,2226.63,2468.47,2631.78,349.85,346.05,20.18,0000 0000 0000 0000 000000
2014-10-30 10:46:50,0.19,3.47,0.00,22.94,27.57,30.57,4.75,28.01,1012.21,2030.00,2225.12,2467.37,2630.54,349.40,345.66,20.21,0000 0000 0000 0000 000000
2014-10-30 10:51:52,0.21,3.47,0.00,22.97,27.56,30.54,4.80,27.89,1012.22,2030.00,2223.52,2466.14,2629.29,350.16,346.47,20.24,0000 0000 0000 0000 000000
2014-10-30 10:56:53,0.21,3.48,0.00,22.98,27.55,30.53,4.80,27.93,1012.22,2030.00,2221.84,2464.92,2627.88,350.22,346.41,20.27,0000 0000 0000 0000 000000
2014-10-30 11:01:55,0.20,3.48,0.00,22.97,27.55,30.52,4.79,27.88,1012.22,2030.00,2220.31,2463.81,2626.65,350.56,346.65,20.30,0000 0000 0000 0000 000000
2014-10-30 11:06:56,0.22,3.49,0.00,22.99,27.54,30.51,4.80,27.91,1012.22,2030.01,2218.69,2462.59,2625.42,350.11,346.05,20.32,0000 0000 0000 0000 000000
2014-10-30 11:11:57,0.20,3.50,0.00,23.03,27.52,30.49,4.74,27.85,1012.22,2030.01,2217.07,2461.43,2624.08,349.44,345.71,20.35,0000 0000 0000 0000 000000
2014-10-30 11:16:59,0.20,3.50,0.00,23.01,27.52,30.50,4.79,27.88,1012.22,2030.01,2215.48,2460.29,2622.89,350.24,346.48,20.38,0000 0000 0000 0000 000000
2014-10-30 11:22:00,0.22,3.51,0.00,23.04,27.52,30.47,4.80,28.01,1012.22,2030.02,2213.84,2459.06,2621.61,349.95,346.07,20.41,0000 0000 0000 0000 000000
2014-10-30 11:27:02,0.20,3.52,0.00,23.04,27.52,30.46,4.86,27.99,1012.22,2030.02,2212.25,2457.87,2620.35,350.56,346.58,20.44,0000 0000 0000 0000 000000
2014-10-30 11:32:03,0.23,3.52,0.00,23.05,27.52,30.43,4.77,27.98,1012.21,2030.04,2210.60,2456.72,2618.99,349.68,345.88,20.47,0000 0000 0000 0000 000000
2014-10-30 11:37:04,0.23,3.53,0.00,23.06,27.52,30.44,4.85,28.25,1012.14,2030.01,2208.84,2455.42,2617.55,350.26,346.35,20.50,0000 0000 0000 0000 000000
2014-10-30 11:42:06,0.21,3.54,0.00,23.09,27.51,30.42,4.83,28.02,1011.98,2030.01,2207.12,2454.07,2616.12,350.45,346.37,20.53,0000 0000 0000 0000 000000
2014-10-30 11:47:07,0.22,3.54,0.00,23.08,27.52,30.40,4.74,28.05,1011.78,2030.01,2205.54,2452.88,2614.77,349.58,345.49,20.56,0000 0000 0000 0000 000000
2014-10-30 11:52:08,0.23,3.55,0.00,23.07,27.52,30.43,4.74,28.00,1011.75,2030.02,2203.83,2451.68,2613.45,349.84,345.84,20.59,0000 0000 0000 0000 000000
2014-10-30 11:57:09,0.20,3.56,0.00,23.08,27.52,30.44,4.72,27.82,1011.73,2030.02,2202.19,2450.49,2612.09,349.48,345.29,20.62,0000 0000 0000 0000 000000
2014-10-30 12:02:11,0.22,3.56,0.00,23.07,27.52,30.43,4.78,27.99,1011.73,2030.03,2200.59,2449.28,2610.71,350.21,346.28,20.65,0000 0000 0000 0000 000000
2014-10-30 12:07:12,0.22,3.57,0.00,23.05,27.52,30.41,4.79,27.98,1011.70,2030.03,2198.92,2447.95,2609.38,350.60,346.26,20.68,0000 0000 0000 0000 000000
2014-10-30 12:12:13,0.23,3.57,0.00,23.08,27.52,30.44,4.77,27.98,1011.43,2030.01,2197.17,2446.71,2607.96,349.51,345.49,20.71,0000 0000 0000 0000 000000
2014-10-30 12:17:14,0.22,3.58,0.00,23.07,27.52,30.44,4.74,28.07,1011.33,2030.00,2195.43,2445.48,2606.60,350.06,345.89,20.73,0000 0000 0000 0000 000000
2014-10-30 12:22:16,0.21,3.59,0.00,23.06,27.52,30.44,4.73,28.15,1011.47,2030.00,2193.75,2444.23,2605.24,349.42,345.29,20.76,0000 0000 0000 0000 000000
2014-10-30 12:27:17,0.24,3.60,0.00,23.06,27.52,30.43,4.76,28.05,1011.55,2030.01,2192.08,2442.98,2603.80,349.66,345.50,20.79,0000 0000 0000 0000 000000
2014-10-30 12:32:18,0.23,3.60,0.00,23.07,27.52,30.40,4.80,28.09,1011.57,2030.01,2190.37,2441.69,2602.50,350.12,346.03,20.82,0000 0000 0000 0000 000000
2014-10-30 12:37:20,0.22,3.61,0.00,23.05,27.52,30.41,4.86,28.27,1011.56,2030.01,2188.60,2440.52,2601.06,350.32,346.21,20.85,0000 0000 0000 0000 000000
2014-10-30 12:42:21,0.23,3.62,0.00,23.06,27.52,30.44,4.80,27.98,1011.57,2030.00,2186.81,2439.27,2599.61,350.32,346.17,20.88,0000 0000 0000 0000 000000
2014-10-30 12:47:22,0.19,3.62,0.00,23.05,27.52,30.45,4.74,27.95,1011.55,2030.02,2185.30,2438.10,2598.39,349.94,345.76,20.91,0000 0000 0000 0000 000000
2014-10-30 12:52:24,0.23,3.63,0.00,23.06,27.52,30.46,4.78,28.07,1011.56,2030.02,2183.65,2436.87,2596.99,349.72,345.59,20.94,0000 0000 0000 0000 000000
2014-10-30 12:57:25,0.23,3.63,0.00,23.04,27.52,30.46,4.84,28.12,1011.62,2030.03,2181.98,2435.69,2595.66,350.14,345.94,20.97,0000 0000 0000 0000 000000
2014-10-30 13:02:27,0.20,3.64,0.00,23.06,27.52,30.45,4.77,28.02,1011.69,2030.02,2180.36,2434.51,2594.36,349.86,345.98,21.00,0000 0000 0000 0000 000000